Location: Montreal
(45.5000°N, 73.5833°W)
Time: 07:17:26
(UTC-04:00)

ISS - Pass Details

Date: 14 October 2017
Orbit: 401 x 408 km, 51.6° (Epoch: 19 October)

Event Time Altitude Azimuth Distance (km) Brightness Sun altitude
Rises 19:25:42 0° 293° (WNW) 2,325 1.4 -14.0°
Reaches altitude 10° 19:27:56 10° 282° (WNW) 1,463 0.4 -14.4°
Maximum altitude 19:30:50 29° 220° (SW) 773 -2.0 -14.9°
Enters shadow 19:33:32 11° 159° (SSE) 1,392 -1.4 -15.4°
